"Time","Temp","Dewpoint","Humidity","Pressure","Direction","Speed","Gust","Precip","PrecipRate"
"00:04:58","41.2","31.8","68.9","30.10","355","0","0","0.00","0.00"
"00:09:59","41","31.6","69","30.10","355","0","0","0.00","0.00"
"00:14:56","40.8","31.4","69.1","30.11","355","0.1","2.4","0.00","0.00"
"00:19:58","40.4","31.4","70.1","30.11","355","0.4","2.4","0.00","0.00"
"00:24:57","40","31.4","71","30.11","355","0","1.2","0.00","0.00"
"00:29:56","39.7","31.3","71.6","30.11","355","0","1.2","0.00","0.00"
"00:34:59","39.7","31.4","72","30.11","355","1.7","3.6","0.00","0.00"
"00:39:59","40.1","31.6","71.3","30.11","351","2.4","4.8","0.00","0.00"
"00:44:57","40.6","31.7","70.3","30.11","350","1","3.6","0.00","0.00"
"00:49:56","40.6","31.6","70","30.11","271","1.1","6","0.00","0.00"
"00:54:57","40.7","31.7","70","30.11","254","1.3","2.4","0.00","0.00"
"00:59:56","40.6","31.6","70","30.11","253","0.9","3.6","0.00","0.00"
"01:04:56","40.3","31.3","70","30.11","253","0.2","1.2","0.00","0.00"
"01:09:56","39.8","31.1","70.5","30.11","254","0","0","0.00","0.00"
"01:14:57","39.4","30.8","71.2","30.11","254","0","0","0.00","0.00"
"01:19:59","38.9","30.6","72","30.11","254","0","0","0.00","0.00"
"01:24:59","38.5","30.7","73.1","30.11","254","0.8","3.6","0.00","0.00"
"01:29:57","38.5","30.9","74","30.11","254","2.2","3.6","0.00","0.00"
"01:34:55","38.9","31","73.1","30.11","255","1.9","4.8","0.00","0.00"
"01:39:57","38.9","31","73","30.11","256","1","3.6","0.00","0.00"
"01:44:59","38.9","31","73","30.11","256","0.5","2.4","0.00","0.00"
"01:49:58","38.9","31","73","30.11","256","0.5","1.2","0.00","0.00"
"01:54:58","39.2","31.3","73","30.11","256","1.9","3.6","0.00","0.00"
"01:59:56","39.8","31.7","72.7","30.12","277","2.9","4.8","0.00","0.00"
"02:04:56","40.5","32","71.4","30.12","308","2.8","7.2","0.00","0.00"
"02:09:56","40.7","31.9","70.4","30.12","325","2","4.8","0.00","0.00"
"02:14:57","40.6","31.8","70.7","30.13","298","1.7","6","0.00","0.00"
"02:19:59","40.7","31.8","70.3","30.13","291","1.4","4.8","0.00","0.00"
"02:24:57","40.9","31.9","70.1","30.13","282","1","3.5","0.00","0.00"
"02:29:56","41.2","32.1","69.8","30.13","282","2.1","4.8","0.00","0.00"
"02:34:59","41.8","32.4","69","30.13","283","2.8","4.8","0.00","0.00"
"02:39:57","42.2","32.4","68","30.13","299","2.9","4.8","0.00","0.00"
"02:44:59","42.2","32.4","68","30.13","286","2.3","6","0.00","0.00"
"02:49:57","41.8","32.2","68.6","30.13","279","1","3.6","0.00","0.00"
"02:54:56","41.3","31.9","69.2","30.13","279","0.5","2.4","0.00","0.00"
"02:59:59","40.8","31.8","70","30.13","279","0.2","2.4","0.00","0.00"
"03:04:56","40.5","31.7","70.7","30.13","279","0.5","2.4","0.00","0.00"
"03:09:56","40.3","31.8","71.6","30.13","279","1.2","3.6","0.00","0.00"
"03:14:56","40.3","32","72","30.13","279","2","3.6","0.00","0.00"
"03:19:59","40.4","32.1","71.9","30.13","282","2.7","4.8","0.00","0.00"
"03:24:57","40.5","31.9","71.2","30.13","284","2.4","3.6","0.00","0.00"
"03:29:59","40.6","32.1","71.7","30.13","284","1.9","4.8","0.00","0.00"
"03:34:57","40.3","31.8","71.4","30.12","284","0.8","2.4","0.00","0.00"
"03:39:59","39.7","31.6","72.5","30.12","284","0.3","2.4","0.00","0.00"
"03:44:57","39.3","31.5","73.5","30.13","284","0.5","2.4","0.00","0.00"
"03:49:59","39.2","31.8","74.7","30.13","284","2.1","3.6","0.00","0.00"
"03:54:58","39.5","31.9","74","30.13","289","2.6","4.8","0.00","0.00"
"03:59:57","39.6","32","74","30.13","290","1.9","4.6","0.00","0.00"
"04:04:57","39.6","32","74","30.13","290","0.1","2.3","0.00","0.00"
"04:09:57","39.4","31.8","74","30.13","290","0","1.2","0.00","0.00"
"04:14:57","39.2","31.8","74.5","30.13","290","0.2","1.2","0.00","0.00"
"04:19:58","39.1","31.8","75","30.13","290","0.3","1.2","0.00","0.00"
"04:24:57","38.7","31.5","75","30.13","290","0","0","0.00","0.00"
"04:29:59","38.3","31.2","75.1","30.14","290","0","0","0.00","0.00"
"04:34:57","37.9","31.1","76.2","30.14","290","0.2","2.4","0.00","0.00"
"04:39:57","37.6","31","77","30.14","290","0.3","2.4","0.00","0.00"
"04:44:59","37.3","31.1","77.9","30.14","290","0.4","2.4","0.00","0.00"
"04:49:57","37.1","30.9","78","30.14","290","1","2.4","0.00","0.00"
"04:54:56","36.9","30.7","78","30.14","290","1.3","2.4","0.00","0.00"
"04:59:59","36.6","30.7","78.9","30.14","290","0.7","2.4","0.00","0.00"
"05:04:59","36.2","30.1","78.3","30.13","290","0.1","1.2","0.00","0.00"
"05:09:59","35.7","29.8","79","30.13","290","0.1","1.2","0.00","0.00"
"05:14:59","35.2","29.5","79.7","30.14","290","0.1","1.2","0.00","0.00"
"05:19:57","34.8","29.6","81","30.14","290","0","0","0.00","0.00"
"05:24:56","34.6","29.8","82.3","30.14","290","0","0","0.00","0.00"
"05:29:58","34.6","30","83","30.15","290","0","0","0.00","0.00"
"05:34:56","34.5","29.9","83","30.15","290","0","0","0.00","0.00"
"05:39:57","34.3","29.7","83","30.15","290","0","0","0.00","0.00"
"05:44:56","34.1","29.5","83","30.15","290","0","0","0.00","0.00"
"05:49:58","33.9","29.5","83.7","30.15","290","0","0","0.00","0.00"
"05:54:56","33.8","29.5","84","30.15","290","0","1.2","0.00","0.00"
"05:59:58","33.6","29.4","84.3","30.16","290","0.6","2.4","0.00","0.00"
"06:04:58","33.4","29.2","84.4","30.16","290","0","1.2","0.00","0.00"
"06:09:59","33.1","28.8","84","30.16","290","0","0","0.00","0.00"
"06:14:58","32.8","28.8","84.9","30.16","290","0","0","0.00","0.00"
"06:19:56","32.6","28.7","85.4","30.16","290","0","0","0.00","0.00"
"06:24:58","32.6","28.9","86","30.16","290","0","0","0.00","0.00"
"06:29:56","32.4","28.7","86","30.17","290","0","0","0.00","0.00"
"06:34:58","32.3","28.6","86","30.17","290","0.7","3.6","0.00","0.00"
"06:39:58","32.1","28.4","86","30.17","290","0","1.2","0.00","0.00"
"06:44:56","31.9","28.2","86.2","30.17","290","0","0","0.00","0.00"
"06:49:58","31.6","28","86.1","30.17","290","0","0","0.00","0.00"
"06:54:57","31.5","28.1","87","30.17","290","0","0","0.00","0.00"
"06:59:59","31.3","27.9","87","30.18","290","0","0","0.00","0.00"
"07:04:59","31.2","28","87.6","30.18","290","0","0","0.00","0.00"
"07:09:55","31.2","28.1","88","30.18","290","0","0","0.00","0.00"
"07:14:56","31.1","27.8","87.4","30.18","290","0","0","0.00","0.00"
"07:19:58","30.9","27.8","87.8","30.18","290","0","0","0.00","0.00"
"07:24:58","30.8","27.7","88","30.18","290","0","0","0.00","0.00"
"07:29:56","30.7","27.6","88","30.18","290","0","0","0.00","0.00"
"07:34:58","30.5","27.4","88","30.18","290","0","0","0.00","0.00"
"07:39:58","30.5","27.5","88.7","30.18","290","0","0","0.00","0.00"
"07:44:56","30.7","27.9","89.4","30.18","290","1.1","3.6","0.00","0.00"
"07:49:57","31","28.2","89.4","30.18","290","0.2","2.3","0.00","0.00"
"07:54:56","31.1","28.2","89","30.18","290","0.2","1.2","0.00","0.00"
"07:59:59","31.3","28.5","89.4","30.18","290","0","0","0.00","0.00"
"08:04:59","31.6","29","90","30.18","290","0","0","0.00","0.00"
"08:09:59","32.3","29.8","90.3","30.18","290","0.3","2.4","0.00","0.00"
"08:14:56","33.2","30.6","90","30.18","290","0.6","2.4","0.00","0.00"
"08:19:58","34.3","31.6","89.5","30.18","290","0.7","2.4","0.00","0.00"
"08:24:57","35.5","32.4","88.3","30.18","290","1.5","4.8","0.00","0.00"
"08:29:56","36.8","33","85.9","30.18","290","0.3","2.4","0.00","0.00"
"08:34:57","38.1","33.7","83.9","30.18","290","0.1","1.2","0.00","0.00"
"08:39:58","39.6","34.3","81.3","30.18","290","0","0","0.00","0.00"
"08:44:59","40.9","34.7","78.6","30.18","290","0","0","0.00","0.00"
"08:49:57","41.6","35.3","78.1","30.18","290","0","0","0.00","0.00"
"08:54:56","42.3","36","78.5","30.18","290","0","0","0.00","0.00"
"08:59:57","43.1","36.2","76.4","30.18","290","0","0","0.00","0.00"
"09:04:57","44.2","36.2","73.2","30.18","290","0","0","0.00","0.00"
"09:09:57","45.6","35.4","67.6","30.18","290","1.1","4.8","0.00","0.00"
"09:14:58","46.8","35","63.5","30.19","290","1.5","4.6","0.00","0.00"
"09:19:58","47.7","35.6","62.7","30.19","290","1","3.6","0.00","0.00"
"09:24:59","48.4","35.8","61.7","30.19","265","1.4","3.6","0.00","0.00"
"09:29:57","48.8","36","61","30.19","244","1.2","3.6","0.00","0.00"
"09:34:58","49.2","36","60.4","30.19","207","2.1","4.8","0.00","0.00"
"09:39:14","49.4","35.4","58.3","30.19","211","3","7.2","0.00","0.00"
"09:44:56","50.1","34.9","56","30.19","313","2.4","6","0.00","0.00"
"09:49:59","50.6","34.6","54.1","30.19","291","3","7.2","0.00","0.00"
"09:54:58","50.9","35","54.3","30.19","294","3.1","8.4","0.00","0.00"
"09:59:57","51.5","35.3","53.9","30.19","256","3.5","8.4","0.00","0.00"
"10:04:59","51.8","35.4","53.3","30.19","324","2.3","7.2","0.00","0.00"
"10:09:57","52.2","34.8","51.4","30.19","285","2.3","7.2","0.00","0.00"
"10:14:58","52.4","35","51.3","30.19","264","1.6","4.8","0.00","0.00"
"10:19:57","53","35.6","51.6","30.19","210","2.8","6","0.00","0.00"
"10:24:59","53.5","35.9","51.3","30.19","222","4.1","7.2","0.00","0.00"
"10:29:58","53.7","35","49","30.19","253","3.4","7.2","0.00","0.00"
"10:34:57","53.8","34.5","48","30.18","243","3.5","6","0.00","0.00"
"10:39:57","53.9","34.7","48.1","30.18","218","3","7.2","0.00","0.00"
"10:44:56","54.2","34.8","47.8","30.18","277","2.2","6.9","0.00","0.00"
"10:49:59","54.7","34.9","47.2","30.17","235","3.1","7.2","0.00","0.00"
"10:54:58","55.1","34.5","45.6","30.17","234","4","7.2","0.00","0.00"
"10:59:57","55.5","34.7","45.5","30.17","209","2.7","7.2","0.00","0.00"
"11:04:59","55.7","33.9","43.6","30.17","282","3.1","7.2","0.00","0.00"
"11:09:58","55.8","34.5","44.6","30.17","274","3.3","6","0.00","0.00"
"11:14:59","56.1","34.1","43.4","30.17","242","4","8.4","0.00","0.00"
"11:19:58","56.5","34.6","43.5","30.17","268","2.6","6","0.00","0.00"
"11:24:57","56.7","33.8","41.9","30.17","294","3.7","8.4","0.00","0.00"
"11:29:59","56.8","33.8","41.8","30.17","256","4.8","10.8","0.00","0.00"
"11:34:58","56.6","32.5","39.9","30.17","311","3.8","8.4","0.00","0.00"
"11:39:59","56.5","33.7","42","30.17","264","3.8","7.2","0.00","0.00"
"11:44:58","56.6","34","42.4","30.17","304","3.4","8.4","0.00","0.00"
"11:49:57","57.1","34.2","42.1","30.16","294","4.5","13.2","0.00","0.00"
"11:54:56","57.2","33.5","40.7","30.16","309","4.9","12.7","0.00","0.00"
"11:59:58","57.7","33.9","40.5","30.16","239","3.9","8.4","0.00","0.00"
"12:04:56","58.2","34","40.1","30.14","261","3.6","7.2","0.00","0.00"
"12:09:59","58.8","34.9","40.7","30.14","248","3.6","7.2","0.00","0.00"
"12:14:56","58.9","34.6","39.9","30.14","245","3.3","6.9","0.00","0.00"
"12:19:59","59.2","34.6","39.4","30.14","246","4.4","13.2","0.00","0.00"
"12:24:58","58.8","33.2","38","30.14","296","3.2","8.4","0.00","0.00"
"12:29:56","58.3","33","38.4","30.14","272","4.1","14.4","0.00","0.00"
"12:34:59","58.2","33.3","39","30.12","315","5.6","15","0.00","0.00"
"12:39:56","58.2","34.2","40.4","30.12","259","4.1","7.2","0.00","0.00"
"12:44:59","58.5","33.8","39.3","30.12","269","3.1","7.2","0.00","0.00"
"12:49:58","58.9","34.5","39.9","30.12","244","3","8.4","0.00","0.00"
"12:54:57","59.3","34.1","38.7","30.12","192","3.2","7.2","0.00","0.00"
"12:59:56","59.8","34.6","38.9","30.12","220","3.2","8.4","0.00","0.00"
"13:04:58","59.8","33.4","36.9","30.12","250","4.5","10.8","0.00","0.00"
"13:09:56","59.5","32.7","36.3","30.12","252","3.3","8.4","0.00","0.00"
"13:14:57","59.5","33.7","37.8","30.12","292","3.1","7.2","0.00","0.00"
"13:19:56","59.8","34.4","38.5","30.11","237","3","7.2","0.00","0.00"
"13:24:59","60.4","35","38.6","30.11","231","4.2","7.2","0.00","0.00"
"13:29:58","60.6","34.5","37.6","30.11","233","4.2","7.2","0.00","0.00"
"13:34:57","60.9","34.3","36.9","30.11","249","3.2","8.4","0.00","0.00"
"13:39:57","61","33.8","36","30.11","247","3.9","8.4","0.00","0.00"
"13:44:57","60.4","32.9","35.4","30.11","297","4.5","12","0.00","0.00"
"13:49:56","60.2","33.3","36.3","30.10","263","3.6","6","0.00","0.00"
"13:54:59","60.7","33.8","36.3","30.10","223","4.3","7.2","0.00","0.00"
"13:59:57","61.2","34.1","36.2","30.10","215","5.6","13.2","0.00","0.00"
"14:04:59","61.4","34","35.8","30.10","232","4.3","7.2","0.00","0.00"
"14:09:58","61.5","33.8","35.4","30.10","265","3.5","6","0.00","0.00"
"14:14:59","61.7","33.7","34.9","30.10","252","3.5","7.2","0.00","0.00"
"14:19:58","61.9","33.9","35","30.10","226","4","6.9","0.00","0.00"
"14:24:56","62.3","35.1","36.1","30.10","226","4.1","8.4","0.00","0.00"
"14:29:59","62.6","33.9","34.2","30.10","240","4.4","13.2","0.00","0.00"
"14:34:58","62.7","34.2","34.4","30.09","218","3.6","7.2","0.00","0.00"
"14:39:59","62.7","33.6","33.5","30.09","269","1.8","5.8","0.00","0.00"
"14:44:57","63.1","34.7","34.6","30.09","176","1.3","3.6","0.00","0.00"
"14:49:56","63.4","34.6","34.2","30.08","214","3.5","8.4","0.00","0.00"
"14:54:59","63.1","34.3","34.1","30.08","203","3.4","7.2","0.00","0.00"
"14:59:57","62.9","33.4","33.1","30.09","216","3","7.2","0.00","0.00"
"15:04:59","62.7","34","34.1","30.09","258","3.8","10.8","0.00","0.00"
"15:09:58","62.5","34.2","34.6","30.09","250","3.6","10.4","0.00","0.00"
"15:14:59","62.4","33.8","34.2","30.09","222","5.5","10.8","0.00","0.00"
"15:19:57","62.1","33.3","34","30.09","213","4.2","10.8","0.00","0.00"
"15:24:56","62.1","33.8","34.6","30.09","224","3.5","6","0.00","0.00"
"15:29:58","61.8","33.6","34.7","30.09","189","2.7","5.8","0.00","0.00"
"15:34:57","61.6","33.3","34.5","30.08","190","1.5","3.6","0.00","0.00"
"15:39:58","61.3","33.7","35.4","30.08","190","2.5","4.8","0.00","0.00"
"15:44:57","61","33.4","35.4","30.08","190","2.5","4.8","0.00","0.00"
"15:49:56","61","33.4","35.4","30.08","188","3.1","6","0.00","0.00"
"15:54:58","61.1","33.8","35.8","30.08","189","2.8","4.8","0.00","0.00"
"15:59:57","61.2","34","36","30.08","190","2.6","4.8","0.00","0.00"
"16:04:59","60.9","33.8","36","30.08","190","1.7","3.6","0.00","0.00"
"16:09:58","60.6","33.9","36.5","30.08","190","1.4","4.8","0.00","0.00"
"16:14:58","60.3","33.1","35.8","30.09","186","1.5","4.8","0.00","0.00"
"16:19:58","59.9","33.1","36.3","30.09","184","1.2","3.5","0.00","0.00"
"16:24:56","59.6","33","36.6","30.09","184","1.1","3.6","0.00","0.00"
"16:29:56","59.4","32.9","36.8","30.09","184","0.2","2.4","0.00","0.00"
"16:34:59","59.1","32.8","37","30.08","184","0","1.2","0.00","0.00"
"16:39:57","58.7","32.5","37","30.08","184","0","0","0.00","0.00"
"16:44:57","58.2","33.3","38.8","30.08","184","0","0","0.00","0.00"
"16:49:56","57.5","33.4","40","30.08","184","0","0","0.00","0.00"
"16:54:56","56.8","33","40.5","30.08","184","0","0","0.00","0.00"
"16:59:59","55.9","33.3","42.3","30.08","184","0","0","0.00","0.00"
"17:04:58","55","33.6","44.2","30.08","184","0","0","0.00","0.00"
"17:09:57","53.9","33.3","45.4","30.08","184","0","0","0.00","0.00"
"17:14:59","53.1","33","46.4","30.08","184","0","0","0.00","0.00"
"17:19:59","52.3","33.4","48.3","30.08","184","0","0","0.00","0.00"
"17:24:58","51.4","33.1","49.5","30.08","184","0","0","0.00","0.00"
"17:29:58","50.6","32.5","49.8","30.08","184","0","0","0.00","0.00"
"17:34:57","49.8","32.9","52","30.08","184","0","0","0.00","0.00"
"17:39:56","49","33.1","54","30.08","184","0","0","0.00","0.00"
"17:44:59","48.3","32.7","54.7","30.08","184","0","0","0.00","0.00"
"17:49:58","47.7","32.7","55.8","30.07","184","0","0","0.00","0.00"
"17:54:58","47.4","32.7","56.5","30.07","184","0","0","0.00","0.00"
"17:59:57","46.9","32.9","58.1","30.07","184","0.3","2.4","0.00","0.00"
"18:04:56","46.4","32.8","59.1","30.07","184","0","2.3","0.00","0.00"
"18:09:59","45.8","32.9","60.6","30.07","184","0","0","0.00","0.00"
"18:14:57","45.3","32.7","61.2","30.08","184","0","0","0.00","0.00"
"18:19:57","44.7","33.2","63.7","30.08","184","0","0","0.00","0.00"
"18:24:56","44.1","33.2","65.2","30.08","184","0.1","1.2","0.00","0.00"
"18:29:56","43.6","33.2","66.5","30.09","184","0","0","0.00","0.00"
"18:34:59","43.4","33.2","67","30.09","184","0","0","0.00","0.00"
"18:39:56","43.3","33.2","67.4","30.09","184","0","0","0.00","0.00"
"18:44:56","43","33.2","68","30.09","184","0","0","0.00","0.00"
"18:49:56","42.7","33.1","68.7","30.09","184","0","0","0.00","0.00"
"18:54:59","42.4","33.1","69.5","30.09","184","0","0","0.00","0.00"
"18:59:59","42.1","33","70","30.10","184","0","0","0.00","0.00"
"19:04:57","41.9","32.8","70","30.10","184","0","0","0.00","0.00"
"19:09:56","41.6","32.8","70.9","30.10","184","0","0","0.00","0.00"
"19:14:58","41.2","32.5","71","30.10","184","0","0","0.00","0.00"
"19:19:57","40.9","32.5","71.8","30.09","184","0","0","0.00","0.00"
"19:24:56","40.6","32.4","72.2","30.09","184","0","0","0.00","0.00"
"19:29:56","40.2","32.3","73.2","30.10","184","0","0","0.00","0.00"
"19:34:59","40","32.4","74","30.10","184","0","1.2","0.00","0.00"
"19:39:57","39.9","32.3","74","30.10","184","0","1.2","0.00","0.00"
"19:44:56","39.8","32.2","74","30.10","184","0","0","0.00","0.00"
"19:49:57","39.6","32","74","30.09","184","0","0","0.00","0.00"
"19:54:57","39.3","32","74.9","30.09","184","0","0","0.00","0.00"
"19:59:56","39.2","31.9","75","30.09","184","0","1.2","0.00","0.00"
"20:04:59","39.1","31.8","75","30.09","184","0","0","0.00","0.00"
"20:09:58","38.9","31.6","75","30.09","184","0","1.2","0.00","0.00"
"20:14:56","38.7","31.5","75.1","30.09","184","0","0","0.00","0.00"
"20:19:59","38.8","31.9","76","30.08","184","0","0","0.00","0.00"
"20:24:59","38.9","32","76","30.08","184","0","0","0.00","0.00"
"20:29:58","38.9","31.7","75.3","30.08","184","0","0","0.00","0.00"
"20:34:59","38.8","31.9","76","30.07","184","0","0","0.00","0.00"
"20:39:56","38.6","31.7","76","30.07","184","0","0","0.00","0.00"
"20:44:56","38.5","31.6","76","30.07","184","0","0","0.00","0.00"
"20:49:59","38.3","31.6","76.8","30.07","184","0","0","0.00","0.00"
"20:54:59","38.1","31.5","77","30.07","184","0","0","0.00","0.00"
"20:59:59","38","31.4","77","30.07","184","0","0","0.00","0.00"
"21:04:57","37.9","31.3","77","30.07","184","0","0","0.00","0.00"
"21:09:56","37.8","31.5","77.7","30.07","184","0","0","0.00","0.00"
"21:14:58","37.7","31.7","78.7","30.07","184","0","0","0.00","0.00"
"21:19:57","37.9","31.7","78.2","30.05","184","0","0","0.00","0.00"
"21:24:57","38","31.7","78","30.05","184","0","0","0.00","0.00"
"21:29:56","38.1","31.7","77.7","30.05","184","0","0","0.00","0.00"
"21:34:59","38.2","31.8","77.6","30.05","184","0","0","0.00","0.00"
"21:39:56","38.3","31.7","77","30.05","184","0","0","0.00","0.00"
"21:44:56","38.3","31.8","77.3","30.05","184","0","0","0.00","0.00"
"21:49:59","38.3","32","78","30.05","184","0","0","0.00","0.00"
"21:54:59","38.2","31.9","78","30.05","184","0","0","0.00","0.00"
"21:59:58","38.2","31.9","78","30.05","184","0","0","0.00","0.00"
"22:04:56","38.1","31.8","78.1","30.04","184","0","0","0.00","0.00"
"22:09:59","38.2","32.3","79","30.04","184","0","0","0.00","0.00"
"22:14:56","38.2","32.3","79","30.04","184","0","0","0.00","0.00"
"22:19:56","38.4","32.5","79","30.03","184","0","0","0.00","0.00"
"22:24:59","38.7","32.3","77.9","30.03","184","0","0","0.00","0.00"
"22:29:58","38.8","32.4","77.8","30.03","184","0","0","0.00","0.00"
"22:34:58","38.8","32.3","77.2","30.02","184","0","0","0.00","0.00"
"22:39:59","38.9","32.4","77.2","30.02","184","0","0","0.00","0.00"
"22:44:58","39","32.4","77","30.02","184","0","0","0.00","0.00"
"22:49:57","39","32.4","77","30.02","184","0","0","0.00","0.00"
"22:54:57","39","32.7","78","30.02","184","0","0","0.00","0.00"
"22:59:56","38.9","32.3","77.2","30.02","184","0","0","0.00","0.00"
"23:04:58","38.7","32.1","77","30.02","184","0","0","0.00","0.00"
"23:09:57","38.7","32.3","77.5","30.02","184","1.3","2.4","0.00","0.00"
"23:14:59","39","32.2","76.4","30.02","184","0.8","2.4","0.00","0.00"
"23:19:58","39.1","32.2","76","30.02","184","0","0","0.00","0.00"
"23:24:57","39","32.3","76.7","30.02","184","0","0","0.00","0.00"
"23:29:56","38.9","32.3","77","30.02","184","0","0","0.00","0.00"
"23:34:59","38.8","32.2","77","30.01","184","0","3.6","0.00","0.00"
"23:39:56","38.6","32","77","30.01","184","0.4","3.5","0.00","0.00"
"23:44:59","38.6","32.2","77.5","30.01","184","0","1.2","0.00","0.00"
"23:49:59","38.7","32.1","77","30.01","184","0.3","3.6","0.00","0.00"
"23:54:58","38.6","32.1","77.2","30.01","184","0","0","0.00","0.00"
